Tracking 18710 objects as of 29-June-2017
HD Live streaming from Space Station
objects crossing your sky now

USA 122

Track USA 122 now!
10-day predictions
USA 122 is classified as:


NORAD ID: 23862
Int'l Code: 1996-029D
Perigee: 662.1 km
Apogee: 1,564.7 km
Inclination: 63.4 °
Period: 107.4 minutes
Semi major axis: 7484 km
RCS: Unknown
Launch date: May 12, 1996
Source: United States (US)
Launch site: AIR FORCE WESTERN TEST RANGE (AFWTR)
Your satellite tracking list
Your tracking list is empty





NASA's NSSDC Master Catalog

Two Line Element Set (TLE):
1 23862U 96029D   17152.93081483 0.00000030  00000-0  18362-4 0    09
2 23862  63.3744  93.3464 0603000  13.0703 346.9297 13.40816319    08
Source of the keplerian elements: McCants